Meteo Giornale » Osservazioni meteo Italia » Bari-Palese Macchie

ore: 16:50 - Osservazioni Meteo Bari-Palese Macchie
Lat. 41° 8' N Lon. 16° 47' E Alt. 34 metri s.l.m.

poco_nuvoloso Europe/Rome

11 °C

Poco Nuvoloso

Temp. 24 Ore

6 °C

12 °C

Est/Sud-Est

11.1 Km/h

Dew point 8 °C

Umidità 81 %

Visibilità  10 Km

Il sole sorge alle ore 07:10

Il sole tramonta alle ore 16:59

Data e Ora Cielo e Fenomeni T °C DP °C Um. % Pres. hPa Vis. km Vento km/h
Oggi h: 16:50 poco_nuvoloso Poco Nuvoloso 11 8 81 1024 10 E/SE 11.1
Oggi h: 16:20 poco_nuvoloso Poco Nuvoloso 12 7 71 1024 10 E/SE 11.1
Oggi h: 15:50 poco_nuvoloso Poco Nuvoloso 12 8 76 1024 10 E/SE 13
Oggi h: 15:20 poco_nuvoloso Poco Nuvoloso 12 8 76 1024 10 E/SE 16.7
Oggi h: 14:50 poco_nuvoloso Poco Nuvoloso 12 8 76 1024 10 E 13
Oggi h: 14:20 poco_nuvoloso Poco Nuvoloso 11 8 81 1024 10 E 14.8
Oggi h: 13:50 poco_nuvoloso Poco Nuvoloso 12 8 76 1024 10 E 14.8
Oggi h: 13:20 poco_nuvoloso Poco Nuvoloso 12 7 71 1025 10 E 13
Oggi h: 12:50 poco_nuvoloso Poco Nuvoloso 12 8 76 1025 10 E 13
Oggi h: 12:20 poco_nuvoloso Poco Nuvoloso 12 7 71 1025 10 E 13
Oggi h: 11:50 sereno Sereno 12 7 71 1026 9 E 9.3
Oggi h: 11:20 sereno Sereno 12 8 76 1026 9 E/SE 7.4
Oggi h: 10:50 sereno Sereno 11 7 76 1026 9 E/SE 7.4
Oggi h: 10:20 poco_nuvoloso Poco Nuvoloso 11 7 76 1026 9 N 5.5
Oggi h: 09:50 poco_nuvoloso Poco Nuvoloso 10 7 81 1026 8 N 3.7
Oggi h: 09:20 nuvoloso Nuvoloso 9 8 93 1026 8 N 3.7
Oggi h: 08:50 nuvoloso Nuvoloso 8 8 100 1026 7 N 0
Oggi h: 08:20 nuvoloso Nuvoloso 7 7 100 1026 7 N 5.5
Oggi h: 07:50 nuvoloso Nuvoloso 7 6 93 1026 7 SO 7.4
Oggi h: 07:20 nuvoloso Nuvoloso 6 6 100 1026 7 SO 7.4
Oggi h: 06:50 nuvoloso Nuvoloso 6 6 100 1026 7 N 3.7
Oggi h: 06:20 nuvoloso Nuvoloso 7 7 100 1026 7 N 5.5
Oggi h: 05:50 nuvoloso Nuvoloso 7 7 100 1026 7 N 5.5
Oggi h: 05:20 nuvoloso Nuvoloso 7 7 100 1026 7 N 3.7
Oggi h: 04:50 nuvoloso Nuvoloso 7 7 100 1026 7 N 3.7
Oggi h: 04:20 nuvoloso Nuvoloso 7 6 93 1026 7 N 5.5
Oggi h: 03:50 nuvoloso Nuvoloso 7 6 93 1026 10 SO 7.4
Oggi h: 03:20 nuvoloso Nuvoloso 7 7 100 1026 7 SO 7.4
Oggi h: 02:50 nuvoloso Nuvoloso 7 7 100 1026 7 N 3.7
Oggi h: 02:20 nuvoloso Nuvoloso 7 7 100 1026 7 N 1.8
Oggi h: 01:50 nuvoloso Nuvoloso 7 7 100 1026 7 N 5.5
Oggi h: 01:20 nuvoloso Nuvoloso 7 7 100 1026 7 N 5.5
Oggi h: 00:50 nuvoloso Nuvoloso 7 7 100 1027 7 N 3.7
Oggi h: 00:20 nuvoloso Nuvoloso 7 6 93 1027 7 N 5.5
Ieri h: 23:50 nuvoloso Nuvoloso 7 6 93 1027 7 N 1.8
Ieri h: 23:20 nuvoloso Nuvoloso 7 7 100 1027 7 N 1.8
Ieri h: 22:50 nuvoloso Nuvoloso 7 7 100 1027 7 N 3.7
Ieri h: 22:20 nuvoloso Nuvoloso 7 7 100 1027 7 N 3.7
Ieri h: 21:50 nuvoloso Nuvoloso 7 7 100 1027 7 N 5.5
Ieri h: 21:20 nuvoloso Nuvoloso 8 7 93 1027 7 N 3.7
Ieri h: 20:50 nuvoloso Nuvoloso 8 7 93 1027 7 N 3.7
Ieri h: 20:20 nuvoloso Nuvoloso 8 7 93 1027 7 N 3.7
Ieri h: 19:50 nuvoloso Nuvoloso 8 7 93 1027 7 N 1.8
Ieri h: 19:20 nuvoloso Nuvoloso 8 7 93 1027 7 N 1.8
Ieri h: 18:50 nuvoloso Nuvoloso 8 7 93 1027 7 N 0
Ieri h: 18:20 molto_nuvoloso Molto Nuvoloso 8 7 93 1026 7 N 0
Ieri h: 17:50 molto_nuvoloso Molto Nuvoloso 8 7 93 1026 7 N 3.7
Ieri h: 17:20 molto_nuvoloso Molto Nuvoloso 8 7 93 1026 6 N 3.7
Ieri h: 16:50 foschia Foschia 9 7 87 1026 5 N 0